Regional Weather Roundup
Issued by NWS

Home | Current Version | Previous Version | Graphics & Text | Print | Product List | Glossary On
Versions: 1 2 3 4 5 6 7 8 9 10 11 12 13 14 15 16 17 18 19 20 21 22 23 24 25 26 27
000
ASUS45 KPSR 260110
RWRAZ

ARIZONA HOURLY REGIONAL WEATHER ROUNDUP
NATIONAL WEATHER SERVICE PHOENIX AZ
600 PM MST WED APR 25 2018

NOTE: FAIR INDICATES FEW OR NO CLOUDS BELOW 12,000 FEET WITH NO
SIGNIFICANT WEATHER AND/OR OBSTRUCTIONS TO VISIBILITY.

AZZ001>003-036-260200-
NORTHWEST ARIZONA

CITY           SKY/WX    TMP DP  RH WIND       PRES   REMARKS
BULLHEAD CITY  SUNNY     99  16   5 VRB5      29.80S
KINGMAN        SUNNY     87  23   9 SW13      29.99S
$$

AZZ004>008-015-016-018-260200-
NORTH CENTRAL ARIZONA

CITY           SKY/WX    TMP DP  RH WIND       PRES   REMARKS
GRAND CANYON   SUNNY     71  10   9 NW9       30.20S
WILLIAMS       SUNNY     72  12  10 NW12      30.16F
PRESCOTT       SUNNY     81  19  10 N8        30.07F
FLAGSTAFF      SUNNY     69  19  15 E8        30.20S
PAYSON         SUNNY     79  16   9 SW9G20    30.08S
PAGE           SUNNY     78  18  10 NE8       30.04F
$$

AZZ009>014-017-260200-
NORTHEAST ARIZONA

CITY           SKY/WX    TMP DP  RH WIND       PRES   REMARKS
WINSLOW        SUNNY     79  20  11 N10       30.08F
SAINT JOHNS    SUNNY     75  13   9 N10       30.11F
WINDOW ROCK    SUNNY     72   6   7 NW9       30.17R
SHOW LOW       SUNNY     72  12  10 N12       30.17F
$$

AZZ540-542>544-546-548-260200-
GREATER PHOENIX AREA

CITY           SKY/WX    TMP DP  RH WIND       PRES   REMARKS
PHOENIX        MOSUNNY   96  20   6 VRB3      29.81F
BUCKEYE        SUNNY     95  32  11 SE5       29.83F
GLENDALE       MOSUNNY   97  14   5 S5        29.84F
DEER VALLEY    SUNNY     93  19   7 SW6       29.84F
SCOTTSDALE     SUNNY     95  27   9 VRB5      29.86F
MESA-FALCON    MOSUNNY   95  25   8 W8        29.85F
MESA-GATEWAY   SUNNY     93  19   7 W7        29.86F
CHANDLER       MOSUNNY   97  18   5 SE5       29.84F
$$

AZZ539-553-260200-
SOUTHWEST MARICOPA COUNTY AND PINAL COUNTY

CITY           SKY/WX    TMP DP  RH WIND       PRES   REMARKS
CASA GRANDE    SUNNY     94  19   6 VRB3      29.86F
GILA BEND      FAIR      96  14   5 W10       29.81F
$$

AZZ503-504-507>509-260200-
SOUTHEAST ARIZONA

CITY           SKY/WX    TMP DP  RH WIND       PRES   REMARKS
TUCSON         MOSUNNY   92  16   6 VRB7      29.93F
DAVIS-MONTHAN  SUNNY     92  22   8 NW13      29.92F
RYAN FIELD     SUNNY     91  19   7 NW9       29.92F
NOGALES        SUNNY     85  11   6 SW9       30.02S
SIERRA VISTA   SUNNY     83  13   7 W10       30.07S
DOUGLAS        SUNNY     86  19   8 W9        30.00F
SAFFORD        SUNNY     90  11   5 NW16G23   29.91F
$$

AZZ532-260200-
SOUTHWEST ARIZONA

CITY           SKY/WX    TMP DP  RH WIND       PRES   REMARKS
YUMA           SUNNY     96  37  12 W6        29.81F
$$

CAZ041-043-047-048-061-525>527-560>570-260200-
SOUTHERN CALIFORNIA

CITY           SKY/WX    TMP DP  RH WIND       PRES   REMARKS
DOWNTOWN L.A.  SUNNY     65  51  60 W5        30.01S
L.A. AIRPORT   MOSUNNY   61  51  70 W15       30.02F
SAN DIEGO      PTSUNNY   63  52  67 W12       30.04S
BURBANK        SUNNY     74  42  31 S8        29.99S
ONTARIO        PTSUNNY   79  36  21 W16       29.98F
RIVERSIDE      SUNNY     78  38  23 W15       29.98S
PALM SPRINGS   MOSUNNY   95  36  12 NW18G24   29.84S
EL CENTRO NAS  MOSUNNY   95  35  12 SW15      29.82S
IMPERIAL       MOSUNNY   95  37  13 W9        29.79F
BLYTHE         SUNNY     98  28   8 S13       29.80S
NEEDLES        SUNNY    101  17   5 E8        29.81F
$$

NVZ020-UTZ003-260200-
SOUTHERN NEVADA-UTAH

CITY           SKY/WX    TMP DP  RH WIND       PRES   REMARKS
LAS VEGAS      PTSUNNY   92  21   7 VRB3      29.90F
SALT LAKE CITY PTSUNNY   69  30  23 N8        30.09F
$$

NMZ009-TXZ055-260200-
NEW MEXICO-WEST TEXAS

CITY           SKY/WX    TMP DP  RH WIND       PRES   REMARKS
ALBUQUERQUE    PTCLDY    72  24  16 CALM      30.10F
EL PASO        PTCLDY    73  37  27 SE8       30.08S
$$


........................KEY........................
SKY/WX - SKY CONDITION/WEATHER
TMP    - TEMPERATURE IN FAHRENHEIT
DP     - DEW POINT IN FAHRENHEIT
RH     - RELATIVE HUMIDITY IN PERCENT
WIND   - DIRECTION AND SPEED IN MILES PER HOUR (MPH)
VRB    - VARIABLE WIND DIRECTION
PRES   - MEAN SEA LEVEL PRESSURE IN INCHES OF MERCURY
         F - FALLING PRESSURE   R - RISING PRESSURE
         S - STEADY PRESSURE
VSB    - VISIBILITY IN MILES
HX     - HEAT INDEX IN FAHRENHEIT
WCI    - WIND CHILL INDEX IN FAHRENHEIT
TC     - TEMPERATURE IN CELSIUS WHICH IS ALSO KNOWN AS
         TEMPERATURE IN CENTIGRADE
AFB    - AIR FORCE BASE
         LUKE AFB IS LUKE AIR FORCE BASE
         DAVIS-MONTHAN IS DAVIS-MONTHAN AIR FORCE BASE
NAS    - NAVAL AIR STATION
         EL CENTRO NAS IS EL CENTRO NAVAL AIR STATION
N/A    - NOT AVAILABLE





USA.gov is the U.S. government's official web portal to all federal, state and local government web resources and services.